Weather History for KCEW - January, 2013

Change the Weather History Date:

Wednesday, January 16, 2013

  Actual Average Record
Temperature  
Mean Temperature 62 °F -  
Max Temperature 73 °F 59 °F 81 °F (1950)
Min Temperature 51 °F 35 °F 23 °F (1983)
Degree Days  
Heating Degree Days 3    
Growing Degree Days 12 (Base 50)    
Moisture  
Dew Point 61 °F    
Average Humidity 94    
Maximum Humidity 100    
Minimum Humidity 87    
Precipitation  
Precipitation 0.45 in - - ()
Sea Level Pressure  
Sea Level Pressure 29.98 in    
Wind  
Wind Speed 6 mph (WNW)    
Max Wind Speed 13 mph    
Max Gust Speed 17 mph    
Visibility 7 miles    
Events Rain    
Averages and records for this station are not official NWS values.
T = Trace of Precipitation, MM = Missing Value Source: NWS Daily Summary

Daily Weather History Graph

Daily Weather History Graph

Search for Another Location

Airport or City:

Trip Planner

Search our weather history database for the weather conditions in past years. The results will help you decide how hot, cold, wet, or windy it might be!

Date:

Astronomy

Jan. 16, 2013 Rise Set
Actual Time 6:44 AM CST 5:08 PM CST
Civil Twilight 6:18 AM CST 5:34 PM CST
Nautical Twilight 5:48 AM CST 6:03 PM CST
Astronomical Twilight 5:19 AM CST 6:32 PM CST
Moon 9:45 AM CST (1/16) 10:31 PM CST (1/16)
Length of Visible Light 11h 16m
Length of Day
10h 24m
Waxing Crescent, 28% of the Moon is Illuminated
Jan 16
Waxing Crescent
Jan 18
First Quarter
Jan 26
Full
Feb 3
Last Quarter
Feb 10
New

Hourly Weather History & Observations

Time (CST) Temp. Dew Point Humidity Pressure Visibility Wind Dir Wind Speed Gust Speed Precip Events Conditions
12:28 AM 68.0 °F 66.2 °F 94% 29.97 in 10.0 mi South 3.5 mph - 0.00 in Rain Light Rain
12:53 AM 68.0 °F 66.9 °F 96% 29.96 in 10.0 mi Variable 5.8 mph - 0.00 in   Overcast
1:09 AM 69.8 °F 66.2 °F 88% 29.97 in 10.0 mi South 8.1 mph - 0.00 in Rain Light Rain
1:53 AM 70.0 °F 68.0 °F 93% 29.96 in 10.0 mi South 12.7 mph 17.3 mph 0.00 in   Overcast
2:53 AM 71.1 °F 69.1 °F 93% 29.96 in 10.0 mi South 11.5 mph - 0.00 in Rain Light Rain
3:53 AM 71.1 °F 69.1 °F 93% 29.95 in 10.0 mi South 10.4 mph - 0.00 in   Overcast
4:53 AM 71.1 °F 69.1 °F 93% 29.96 in 10.0 mi South 9.2 mph - N/A   Overcast
5:53 AM 71.1 °F 69.1 °F 93% 29.96 in 9.0 mi South 8.1 mph - N/A   Overcast
6:07 AM 71.6 °F 69.8 °F 94% 29.97 in 9.0 mi South 6.9 mph - N/A   Overcast
6:19 AM 71.6 °F 69.8 °F 94% 29.97 in 9.0 mi South 8.1 mph - N/A   Overcast
6:53 AM 71.1 °F 69.1 °F 93% 29.97 in 10.0 mi South 8.1 mph - N/A   Overcast
7:24 AM 71.6 °F 68.0 °F 88% 29.99 in 8.0 mi South 6.9 mph - N/A   Overcast
7:37 AM 71.6 °F 68.0 °F 88% 30.00 in 9.0 mi South 10.4 mph - N/A   Overcast
7:53 AM 71.1 °F 68.0 °F 90% 29.99 in 9.0 mi South 6.9 mph - N/A   Overcast
8:26 AM 71.6 °F 69.8 °F 94% 30.01 in 10.0 mi South 8.1 mph - N/A   Overcast
8:53 AM 73.0 °F 69.1 °F 87% 30.01 in 10.0 mi South 9.2 mph - N/A   Overcast
9:12 AM 73.4 °F 69.8 °F 88% 30.01 in 10.0 mi South 8.1 mph - N/A   Overcast
9:53 AM 68.0 °F 64.0 °F 87% 30.00 in 10.0 mi NNW 8.1 mph - N/A   Overcast
10:33 AM 64.4 °F 62.6 °F 94% 29.99 in 10.0 mi North 5.8 mph - N/A   Overcast
10:53 AM 63.0 °F 60.1 °F 90% 29.98 in 8.0 mi NW 8.1 mph 17.3 mph 0.00 in Rain Light Rain
11:01 AM 62.6 °F 60.8 °F 94% 29.99 in 1.8 mi NW 6.9 mph - 0.06 in Rain Rain
11:09 AM 62.6 °F 60.8 °F 94% 29.98 in 1.0 mi NNW 4.6 mph - 0.11 in Rain Heavy Rain
11:15 AM 62.6 °F 60.8 °F 94% 29.98 in 2.0 mi Variable 3.5 mph - 0.14 in Rain Heavy Rain
11:19 AM 62.6 °F 60.8 °F 94% 29.98 in 1.2 mi Variable 3.5 mph - 0.17 in Rain Heavy Rain
11:27 AM 62.6 °F 60.8 °F 94% 29.98 in 0.8 mi NW 4.6 mph - 0.26 in Rain Heavy Rain
11:38 AM 62.6 °F 60.8 °F 94% 29.98 in 2.0 mi NNW 4.6 mph - 0.30 in Rain Light Rain
11:46 AM 62.6 °F 60.8 °F 94% 29.97 in 9.0 mi NW 4.6 mph - 0.30 in Rain Light Rain
11:53 AM 63.0 °F 61.0 °F 93% 29.96 in 10.0 mi Calm Calm - 0.30 in Rain Light Rain
12:01 PM 62.6 °F 62.6 °F 100% 29.97 in 7.0 mi NW 4.6 mph - 0.00 in Rain Light Rain
12:11 PM 64.4 °F 62.6 °F 94% 29.96 in 10.0 mi NNW 8.1 mph - 0.00 in   Overcast
12:53 PM 63.0 °F 61.0 °F 93% 29.95 in 2.5 mi NNW 5.8 mph - 0.01 in Rain Light Rain
12:59 PM 62.6 °F 60.8 °F 94% 29.95 in 4.0 mi Calm Calm - 0.01 in Rain Light Rain
1:11 PM 62.6 °F 60.8 °F 94% 29.95 in 8.0 mi North 3.5 mph - 0.01 in Rain Light Rain
1:26 PM 62.6 °F 60.8 °F 94% 29.95 in 6.0 mi NNW 3.5 mph - 0.01 in Rain Light Rain
1:42 PM 62.6 °F 60.8 °F 94% 29.95 in 6.0 mi NW 6.9 mph - 0.01 in Rain Light Rain
1:49 PM 62.6 °F 60.8 °F 94% 29.96 in 1.8 mi WNW 8.1 mph - 0.04 in Rain Heavy Rain
1:53 PM 62.1 °F 60.1 °F 93% 29.95 in 1.0 mi NNW 4.6 mph - 0.08 in Rain Heavy Rain
2:04 PM 60.8 °F 59.0 °F 94% 29.96 in 3.0 mi NNW 9.2 mph - 0.02 in Rain Light Rain
2:18 PM 60.8 °F 59.0 °F 94% 29.96 in 2.5 mi NW 4.6 mph - 0.03 in Rain Rain
2:24 PM 60.8 °F 59.0 °F 94% 29.96 in 3.0 mi NW 5.8 mph - 0.03 in Rain Light Rain
2:38 PM 60.8 °F 59.0 °F 94% 29.97 in 3.0 mi WNW 3.5 mph - 0.03 in Rain Light Rain
2:51 PM 60.8 °F 60.8 °F 100% 29.97 in 2.5 mi WNW 3.5 mph - 0.03 in Rain Light Rain
2:53 PM 61.0 °F 59.0 °F 93% 29.96 in 2.5 mi NW 4.6 mph - 0.03 in Rain Light Rain
3:07 PM 60.8 °F 59.0 °F 94% 29.98 in 2.0 mi NW 4.6 mph - 0.00 in Rain Light Rain
3:37 PM 60.8 °F 59.0 °F 94% 29.96 in 6.0 mi NNW 9.2 mph - 0.00 in Rain Light Rain
3:44 PM 60.8 °F 59.0 °F 94% 29.97 in 10.0 mi NNW 9.2 mph - 0.00 in   Overcast
3:53 PM 60.1 °F 59.0 °F 96% 29.96 in 10.0 mi Variable 3.5 mph - 0.00 in   Overcast
4:53 PM 57.0 °F 55.9 °F 96% 29.99 in 10.0 mi NW 5.8 mph - 0.00 in   Overcast
5:53 PM 55.0 °F 54.0 °F 96% 30.00 in 9.0 mi NNW 8.1 mph - 0.00 in   Overcast
6:53 PM 54.0 °F 53.1 °F 97% 30.01 in 10.0 mi NW 8.1 mph - 0.00 in Rain Light Rain
7:53 PM 53.1 °F 52.0 °F 96% 30.01 in 10.0 mi North 5.8 mph - 0.03 in Rain Light Rain
8:35 PM 53.6 °F 51.8 °F 94% 30.01 in 7.0 mi NNE 6.9 mph - 0.00 in Rain Light Rain
8:53 PM 52.0 °F 51.1 °F 97% 30.01 in 10.0 mi North 3.5 mph - 0.00 in Rain Light Rain
9:32 PM 51.8 °F 51.8 °F 100% 30.00 in 10.0 mi Calm Calm - 0.00 in   Overcast
9:53 PM 52.0 °F 51.1 °F 97% 29.99 in 10.0 mi NNW 3.5 mph - 0.00 in   Overcast
10:20 PM 51.8 °F 51.8 °F 100% 29.98 in 10.0 mi Calm Calm - N/A   Mostly Cloudy
10:53 PM 53.1 °F 51.1 °F 93% 29.97 in 10.0 mi Calm Calm - N/A   Overcast
11:20 PM 51.8 °F 51.8 °F 100% 29.99 in 10.0 mi West 9.2 mph - N/A   Overcast
11:41 PM 51.8 °F 50.0 °F 94% 30.00 in 1.8 mi West 10.4 mph - 0.00 in Rain Light Rain
11:53 PM 51.1 °F 50.0 °F 96% 29.99 in 3.0 mi West 5.8 mph - 0.00 in Rain Light Rain